sat.trackr.live / text

‹ back to catalog

STARLINK-32683

NORAD 62445 · 2024-251P

PAYLOAD ACTIVE UNKNOWN

§ Identity

Operator
Country
US
Launch date
2024-12-29
Launch site
AFWTR
Launch vehicle
Mass (kg)
RCS (m²)

Purposes: comms

External: N2YO · Heavens-Above · Gunter

§ Orbital elements

Epoch: 2026-09-21T20:19:59.984256Z

Period
93.85 min
Inclination
53.1589°
Eccentricity
0.0001175
Mean motion
15.34408669 rev/d
Perigee alt
461.9 km
Apogee alt
463.5 km
Semi-major
6,840.8 km
B*
7.2006e-4
RAAN
141.1480°
Arg perigee
84.5878°
Mean anomaly
275.5259°
Rev number
9,802

§ Raw data

STARLINK-326831 62445U 24251P   26264.84722204  .00024037  00000+0  72006-3 0  99972 62445  53.1589 141.1480 0001175  84.5878 275.5259 15.34408669 98027

JSON: /api/v1/satellites/62445 · /tle

For live sub-satellite position, see the globe view (requires WebGL).

§ Visibility from observer

Set your observer location to see the next 7 days of passes ≥ 10°. The values pass through the URL so the page stays shareable.

No JS? Fill the form by hand. The geolocation button needs JavaScript.